Location: Poprad
(49.0500°N, 20.3000°E)
Time: 16:35:25
(UTC+02:00)

Cosmos 1515 Rocket - Visible Passes

Search period start: 12 July 2024 00:00
Search period end: 22 July 2024 00:00
Orbit: 604 x 625 km, 82.5° (Epoch: 11 July)

Date Brightness Start Highest point End Pass type
(mag) Time Alt. Az. Time Alt. Az. Time Alt. Az.
12 Jul 6.9 02:50:38 10° NE 02:51:43 11° ENE 02:52:49 10° ENE visible
13 Jul 6.4 03:05:01 10° NNE 03:07:58 17° ENE 03:10:54 10° ESE visible
14 Jul 5.8 03:20:19 10° NNE 03:24:08 27° ENE 03:27:52 10° SE visible
15 Jul 4.8 03:35:55 10° N 03:40:11 43° ENE 03:44:23 10° SSE visible
16 Jul 3.8 03:51:40 10° N 03:56:09 74° E 04:00:32 10° SSE visible
17 Jul 6.3 02:31:00 10° NNE 02:33:45 16° ENE 02:36:30 10° ESE visible
17 Jul 3.6 04:07:36 10° NNW 04:12:01 65° W 04:16:23 10° S visible
18 Jul 5.8 02:46:13 10° NNE 02:49:55 25° ENE 02:53:34 10° SE visible
19 Jul 4.9 03:01:47 10° N 03:05:59 40° ENE 03:10:08 10° SE visible
20 Jul 3.9 03:17:30 10° N 03:21:57 68° ENE 03:26:20 10° SSE visible
21 Jul 6.3 01:56:58 10° NNE 01:59:30 15° ENE 02:02:02 10° E visible
21 Jul 3.5 03:33:24 10° NNW 03:37:49 71° W 03:42:12 10° S visible
